RYR50XZ LFMU-EGGW

Flight info

Callsign RYR50XZ
Flight time 1h 36m
Altitude 38000
Route FJR DCT NG DCT MOLEN DCT MTL DCT ETREK DCT MADOT DCT MOPEM DCT CACHI DCT AVLON DCT OKRIX DCT BRY DCT CLM DCT KOPOR DCT PIREG DCT SOSUN DCT SUBIP UM733 UNDUG
Aircraft B38M/M-SADE3FGILRWY/SB1

Departure

Time 2026-04-21 14:33
Airport Béziers Vias airport (LFMU)

Arrival

Time 2026-04-21 16:09
Airport London Luton Airport (EGGW)
Time Latitude Longitude Altitude Speed Heading
2026-04-21 14:10 43.32144 3.35313 60 ft 0 kts 126°
2026-04-21 14:29 43.32142 3.35318 54 ft 2 kts 119°
2026-04-21 14:30 43.32144 3.35330 55 ft 1 kts 55°
2026-04-21 14:30 43.32163 3.35331 57 ft 6 kts 348°
2026-04-21 14:30 43.32236 3.35327 61 ft 14 kts
2026-04-21 14:30 43.32334 3.35317 57 ft 16 kts 317°
2026-04-21 14:31 43.32355 3.35161 55 ft 18 kts 275°
2026-04-21 14:31 43.32365 3.34983 60 ft 19 kts 274°
2026-04-21 14:31 43.32374 3.34800 62 ft 20 kts 274°
2026-04-21 14:31 43.32385 3.34601 61 ft 22 kts 274°
2026-04-21 14:32 43.32397 3.34394 58 ft 22 kts 275°
2026-04-21 14:32 43.32389 3.34233 57 ft 13 kts 247°
2026-04-21 14:32 43.32402 3.34195 59 ft 2 kts
2026-04-21 14:32 43.32407 3.34256 64 ft 25 kts 95°
2026-04-21 14:33 43.32368 3.34916 55 ft 111 kts 94°
2026-04-21 14:33 43.32291 3.36250 191 ft 162 kts 97°
2026-04-21 14:33 43.32202 3.37835 938 ft 168 kts 98°
2026-04-21 14:33 43.32120 3.39507 1693 ft 185 kts 91°
2026-04-21 14:34 43.32437 3.41340 2439 ft 215 kts 63°
2026-04-21 14:34 43.33446 3.42972 3226 ft 237 kts 43°
2026-04-21 14:34 43.34653 3.44643 4138 ft 255 kts 46°
2026-04-21 14:34 43.35904 3.46487 5105 ft 271 kts 46°
2026-04-21 14:35 43.37185 3.48438 6244 ft 277 kts 46°
2026-04-21 14:35 43.38479 3.50437 7334 ft 283 kts 46°
2026-04-21 14:35 43.39771 3.52452 8414 ft 287 kts 46°
2026-04-21 14:35 43.41098 3.54537 9454 ft 293 kts 45°
2026-04-21 14:36 43.42453 3.56676 10374 ft 302 kts 45°
2026-04-21 14:36 43.43849 3.58951 10942 ft 323 kts 52°
2026-04-21 14:36 43.44940 3.61730 11683 ft 335 kts 61°
2026-04-21 14:36 43.45992 3.64646 12478 ft 344 kts 60°
2026-04-21 14:37 43.47063 3.67599 13415 ft 346 kts 60°
2026-04-21 14:37 43.48130 3.70547 14182 ft 351 kts 60°
2026-04-21 14:37 43.49227 3.73576 14939 ft 355 kts 60°
2026-04-21 14:37 43.50336 3.76643 15680 ft 360 kts 60°
2026-04-21 14:38 43.51457 3.79747 16389 ft 363 kts 60°
2026-04-21 14:38 43.52588 3.82879 17080 ft 368 kts 60°
2026-04-21 14:38 43.53733 3.86058 17735 ft 372 kts 60°
2026-04-21 14:38 43.54887 3.89265 18358 ft 376 kts 60°
2026-04-21 14:39 43.56054 3.92508 18902 ft 379 kts 60°
2026-04-21 14:39 43.57214 3.95732 19437 ft 382 kts 59°
2026-04-21 14:39 43.58696 3.98738 19935 ft 379 kts 44°
2026-04-21 14:39 43.60463 4.01460 20414 ft 383 kts 44°
2026-04-21 14:40 43.62238 4.04222 20917 ft 386 kts 44°
2026-04-21 14:40 43.64031 4.06996 21431 ft 389 kts 44°
2026-04-21 14:40 43.65840 4.09789 21916 ft 392 kts 44°
2026-04-21 14:40 43.67664 4.12607 22376 ft 395 kts 44°
2026-04-21 14:41 43.69500 4.15444 22816 ft 397 kts 44°
2026-04-21 14:41 43.71346 4.18300 23233 ft 400 kts 44°
2026-04-21 14:41 43.73208 4.21182 23608 ft 403 kts 43°
2026-04-21 14:41 43.75054 4.24042 23907 ft 406 kts 43°
2026-04-21 14:42 43.76936 4.26962 24246 ft 407 kts 43°
2026-04-21 14:42 43.78825 4.29895 24569 ft 409 kts 43°
2026-04-21 14:42 43.80723 4.32846 24868 ft 411 kts 43°
2026-04-21 14:42 43.82627 4.35808 25184 ft 412 kts 43°
2026-04-21 14:43 43.84561 4.38746 25463 ft 412 kts 38°
2026-04-21 14:43 43.86871 4.40974 25717 ft 401 kts 19°
2026-04-21 14:43 43.89435 4.42471 25912 ft 402 kts 17°
2026-04-21 14:43 43.91995 4.43920 26166 ft 403 kts 16°
2026-04-21 14:44 43.94598 4.45360 26449 ft 404 kts 16°
2026-04-21 14:44 43.97218 4.46790 26678 ft 405 kts 16°
2026-04-21 14:44 43.99849 4.48213 26941 ft 406 kts 16°
2026-04-21 14:44 44.02486 4.49636 27186 ft 407 kts 15°
2026-04-21 14:45 44.05131 4.51059 27418 ft 408 kts 15°
2026-04-21 14:45 44.07791 4.52466 27645 ft 409 kts 15°
2026-04-21 14:45 44.10455 4.53879 27858 ft 410 kts 15°
2026-04-21 14:45 44.13124 4.55296 28058 ft 412 kts 15°
2026-04-21 14:46 44.15767 4.56702 28249 ft 413 kts 15°
2026-04-21 14:46 44.18455 4.58132 28449 ft 414 kts 15°
2026-04-21 14:46 44.21154 4.59569 28629 ft 415 kts 15°
2026-04-21 14:46 44.23856 4.61010 28813 ft 416 kts 15°
2026-04-21 14:47 44.26563 4.62455 28991 ft 417 kts 15°
2026-04-21 14:47 44.29277 4.63905 29155 ft 418 kts 15°
2026-04-21 14:47 44.31998 4.65360 29336 ft 419 kts 15°
2026-04-21 14:47 44.34723 4.66819 29523 ft 420 kts 15°
2026-04-21 14:48 44.37459 4.68285 29701 ft 422 kts 15°
2026-04-21 14:48 44.40198 4.69754 29887 ft 423 kts 15°
2026-04-21 14:48 44.42909 4.71210 30054 ft 424 kts 15°
2026-04-21 14:48 44.45665 4.72691 30224 ft 425 kts 15°
2026-04-21 14:49 44.48427 4.74177 30376 ft 426 kts 14°
2026-04-21 14:49 44.51199 4.75670 30553 ft 427 kts 14°
2026-04-21 14:49 44.53995 4.77038 30742 ft 422 kts
2026-04-21 14:49 44.56871 4.77358 30901 ft 411 kts 350°
2026-04-21 14:50 44.58745 4.77050 30976 ft 410 kts 347°
2026-04-21 14:50 44.62550 4.76341 31207 ft 412 kts 347°
2026-04-21 14:50 44.65352 4.75769 31401 ft 413 kts 346°
2026-04-21 14:50 44.68201 4.75163 31603 ft 414 kts 346°
2026-04-21 14:51 44.71050 4.74540 31811 ft 415 kts 346°
2026-04-21 14:51 44.73908 4.73909 32041 ft 416 kts 346°
2026-04-21 14:51 44.76775 4.73273 32267 ft 418 kts 345°
2026-04-21 14:51 44.79652 4.72633 32518 ft 419 kts 345°
2026-04-21 14:52 44.82530 4.71993 32822 ft 419 kts 345°
2026-04-21 14:52 44.85402 4.71352 33195 ft 417 kts 345°
2026-04-21 14:52 44.88224 4.70724 33570 ft 415 kts 345°
2026-04-21 14:52 44.91075 4.70088 33986 ft 414 kts 345°
2026-04-21 14:53 44.93915 4.69454 34371 ft 412 kts 345°
2026-04-21 14:53 44.96740 4.68821 34695 ft 411 kts 345°
2026-04-21 14:53 44.99565 4.68189 35001 ft 411 kts 345°
2026-04-21 14:53 45.02395 4.67554 35268 ft 412 kts 345°
2026-04-21 14:54 45.05227 4.66919 35573 ft 412 kts 345°
2026-04-21 14:54 45.08059 4.66283 35854 ft 412 kts 345°
2026-04-21 14:54 45.10854 4.65654 36128 ft 412 kts 345°
2026-04-21 14:54 45.13686 4.65017 36425 ft 412 kts 345°
2026-04-21 14:55 45.16517 4.64379 36673 ft 412 kts 345°
2026-04-21 14:55 45.19350 4.63736 36910 ft 413 kts 345°
2026-04-21 14:55 45.22187 4.63090 37143 ft 413 kts 345°
2026-04-21 14:55 45.25022 4.62443 37363 ft 413 kts 345°
2026-04-21 14:56 45.27870 4.61793 37516 ft 415 kts 345°
2026-04-21 14:56 45.30723 4.61141 37772 ft 415 kts 345°
2026-04-21 14:56 45.33530 4.60499 38010 ft 415 kts 345°
2026-04-21 14:57 45.39216 4.59196 37962 ft 411 kts 345°
2026-04-21 14:57 45.44883 4.57895 37996 ft 413 kts 345°
2026-04-21 14:58 45.50549 4.56592 38012 ft 412 kts 345°
2026-04-21 14:58 45.56210 4.55287 37990 ft 412 kts 345°
2026-04-21 14:59 45.61835 4.53987 37974 ft 412 kts 345°
2026-04-21 14:59 45.67497 4.52678 37991 ft 413 kts 345°
2026-04-21 15:00 45.73164 4.51363 38002 ft 412 kts 345°
2026-04-21 15:00 45.78786 4.50056 38013 ft 412 kts 345°
2026-04-21 15:01 45.84448 4.48738 38007 ft 412 kts 345°
2026-04-21 15:01 45.90113 4.47416 38019 ft 413 kts 345°
2026-04-21 15:02 45.95785 4.46089 38013 ft 414 kts 345°
2026-04-21 15:02 46.01463 4.44759 38019 ft 413 kts 345°
2026-04-21 15:03 46.07104 4.43434 38013 ft 413 kts 345°
2026-04-21 15:03 46.12786 4.42097 38012 ft 414 kts 345°
2026-04-21 15:04 46.18473 4.40755 38018 ft 414 kts 345°
2026-04-21 15:04 46.24154 4.39413 38022 ft 414 kts 345°
2026-04-21 15:05 46.29742 4.37842 38033 ft 409 kts 341°
2026-04-21 15:05 46.38073 4.34875 38022 ft 412 kts 341°
2026-04-21 15:06 46.43644 4.32929 38024 ft 412 kts 341°
2026-04-21 15:06 46.48272 4.31313 38024 ft 412 kts 341°
2026-04-21 15:07 46.53847 4.29362 38026 ft 413 kts 341°
2026-04-21 15:07 46.60340 4.27085 38023 ft 413 kts 341°
2026-04-21 15:08 46.65017 4.25441 38030 ft 413 kts 341°
2026-04-21 15:08 46.70561 4.23488 38028 ft 413 kts 341°
2026-04-21 15:09 46.76139 4.21520 38035 ft 413 kts 341°
2026-04-21 15:09 46.81720 4.19545 38031 ft 413 kts 341°
2026-04-21 15:10 46.87302 4.17567 38031 ft 413 kts 341°
2026-04-21 15:10 46.92883 4.15584 38037 ft 413 kts 341°
2026-04-21 15:11 46.98434 4.13609 38040 ft 414 kts 341°
2026-04-21 15:11 47.04024 4.11615 38037 ft 413 kts 341°
2026-04-21 15:12 47.09436 4.09001 38054 ft 408 kts 334°
2026-04-21 15:12 47.14737 4.05905 38044 ft 410 kts 334°
2026-04-21 15:13 47.20027 4.02781 38055 ft 410 kts 334°
2026-04-21 15:13 47.25316 3.99647 38057 ft 410 kts 334°
2026-04-21 15:14 47.30566 3.96530 38053 ft 409 kts 334°
2026-04-21 15:14 47.35849 3.93387 38058 ft 410 kts 334°
2026-04-21 15:15 47.41137 3.90234 38063 ft 410 kts 334°
2026-04-21 15:15 47.46424 3.87073 38064 ft 410 kts 334°
2026-04-21 15:16 47.51678 3.83927 38069 ft 410 kts 334°
2026-04-21 15:16 47.56969 3.80752 38073 ft 410 kts 334°
2026-04-21 15:17 47.62255 3.77574 38072 ft 410 kts 334°
2026-04-21 15:17 47.67538 3.74391 38079 ft 410 kts 334°
2026-04-21 15:18 47.72825 3.71199 38079 ft 410 kts 334°
2026-04-21 15:18 47.78074 3.68023 38087 ft 410 kts 334°
2026-04-21 15:19 47.83356 3.64820 38091 ft 410 kts 334°
2026-04-21 15:19 47.88637 3.61610 38086 ft 410 kts 334°
2026-04-21 15:20 47.93879 3.58417 38091 ft 410 kts 334°
2026-04-21 15:20 47.99157 3.55187 38090 ft 411 kts 334°
2026-04-21 15:21 48.04440 3.51942 38093 ft 411 kts 334°
2026-04-21 15:21 48.09724 3.48689 38103 ft 411 kts 334°
2026-04-21 15:22 48.15005 3.45432 38112 ft 410 kts 334°
2026-04-21 15:22 48.20248 3.42191 38106 ft 411 kts 334°
2026-04-21 15:23 48.25532 3.38917 38117 ft 411 kts 334°
2026-04-21 15:23 48.30819 3.35634 38110 ft 411 kts 334°
2026-04-21 15:24 48.36104 3.32345 38113 ft 411 kts 334°
2026-04-21 15:24 48.41346 3.29056 38126 ft 411 kts 334°
2026-04-21 15:25 48.46622 3.25695 38125 ft 412 kts 334°
2026-04-21 15:25 48.51901 3.22327 38119 ft 412 kts 334°
2026-04-21 15:26 48.57178 3.18953 38129 ft 412 kts 334°
2026-04-21 15:26 48.62456 3.15573 38154 ft 412 kts 334°
2026-04-21 15:27 48.67711 3.12197 38140 ft 413 kts 334°
2026-04-21 15:27 48.73004 3.08790 38142 ft 413 kts 334°
2026-04-21 15:28 48.78296 3.05376 38121 ft 413 kts 334°
2026-04-21 15:28 48.83578 3.01957 38146 ft 412 kts 333°
2026-04-21 15:29 48.88545 2.97809 38157 ft 411 kts 328°
2026-04-21 15:29 48.93500 2.93497 38162 ft 410 kts 327°
2026-04-21 15:30 48.98448 2.89166 38155 ft 410 kts 327°
2026-04-21 15:30 49.03392 2.84826 38160 ft 410 kts 327°
2026-04-21 15:31 49.08308 2.80501 38167 ft 412 kts 328°
2026-04-21 15:31 49.13272 2.76124 38161 ft 412 kts 328°
2026-04-21 15:32 49.18232 2.71740 38162 ft 412 kts 328°
2026-04-21 15:32 49.23195 2.67343 38170 ft 412 kts 328°
2026-04-21 15:33 49.28150 2.62942 38177 ft 411 kts 327°
2026-04-21 15:33 49.33073 2.58560 38173 ft 413 kts 327°
2026-04-21 15:34 49.38035 2.54133 38180 ft 413 kts 327°
2026-04-21 15:34 49.42994 2.49699 38175 ft 412 kts 327°
2026-04-21 15:35 49.47949 2.45258 38177 ft 412 kts 327°
2026-04-21 15:35 49.52664 2.40406 38169 ft 409 kts 316°
2026-04-21 15:36 49.56928 2.34529 38160 ft 412 kts 317°
2026-04-21 15:36 49.61207 2.28631 38185 ft 413 kts 317°
2026-04-21 15:37 49.65478 2.22714 38161 ft 412 kts 317°
2026-04-21 15:37 49.69737 2.16799 38179 ft 412 kts 317°
2026-04-21 15:38 49.73963 2.10916 38189 ft 412 kts 317°
2026-04-21 15:38 49.78229 2.04961 38188 ft 414 kts 317°
2026-04-21 15:39 49.82499 1.98986 38188 ft 414 kts 317°
2026-04-21 15:39 49.86737 1.92961 38184 ft 413 kts 311°
2026-04-21 15:40 49.88353 1.89315 38178 ft 410 kts 296°
2026-04-21 15:40 49.89504 1.85326 38192 ft 413 kts 295°
2026-04-21 15:40 49.91783 1.77139 38190 ft 413 kts 294°
2026-04-21 15:41 49.93982 1.68914 38193 ft 413 kts 293°
2026-04-21 15:41 49.96155 1.60665 38209 ft 413 kts 293°
2026-04-21 15:42 49.98576 1.52581 38171 ft 413 kts 307°
2026-04-21 15:42 50.02623 1.46353 38174 ft 415 kts 316°
2026-04-21 15:43 50.06917 1.40360 38208 ft 415 kts 317°
2026-04-21 15:43 50.11249 1.34421 38192 ft 414 kts 317°
2026-04-21 15:44 50.15584 1.28495 38209 ft 414 kts 317°
2026-04-21 15:44 50.19888 1.22599 38215 ft 415 kts 317°
2026-04-21 15:45 50.24230 1.16637 38219 ft 417 kts 317°
2026-04-21 15:45 50.28577 1.10651 38215 ft 416 kts 317°
2026-04-21 15:46 50.32922 1.04654 38229 ft 416 kts 317°
2026-04-21 15:46 50.37230 0.98692 38228 ft 416 kts 317°
2026-04-21 15:47 50.41568 0.92676 38228 ft 416 kts 317°
2026-04-21 15:47 50.43737 0.89665 37940 ft 416 kts 318°
2026-04-21 15:47 50.45960 0.86704 36854 ft 424 kts 319°
2026-04-21 15:48 50.48213 0.83715 36205 ft 421 kts 318°
2026-04-21 15:48 50.50419 0.80776 35791 ft 413 kts 318°
2026-04-21 15:48 50.52609 0.77852 35008 ft 414 kts 318°
2026-04-21 15:48 50.54785 0.74951 34566 ft 406 kts 318°
2026-04-21 15:49 50.56900 0.72135 33850 ft 404 kts 318°
2026-04-21 15:49 50.59050 0.69268 33064 ft 403 kts 318°
2026-04-21 15:49 50.61185 0.66418 32095 ft 405 kts 318°
2026-04-21 15:49 50.63344 0.63531 31250 ft 406 kts 318°
2026-04-21 15:50 50.65490 0.60659 30388 ft 406 kts 318°
2026-04-21 15:50 50.67638 0.57780 29591 ft 403 kts 318°
2026-04-21 15:50 50.69758 0.54936 28948 ft 397 kts 318°
2026-04-21 15:50 50.71841 0.52137 28383 ft 390 kts 319°
2026-04-21 15:51 50.73887 0.49384 27833 ft 384 kts 319°
2026-04-21 15:51 50.75877 0.46703 27258 ft 379 kts 319°
2026-04-21 15:51 50.77869 0.44017 26731 ft 374 kts 318°
2026-04-21 15:51 50.79839 0.41359 26142 ft 371 kts 319°
2026-04-21 15:52 50.81796 0.38713 25590 ft 368 kts 319°
2026-04-21 15:52 50.83732 0.36093 25104 ft 364 kts 319°
2026-04-21 15:52 50.85648 0.33498 24607 ft 361 kts 319°
2026-04-21 15:52 50.87545 0.30925 24124 ft 358 kts 319°
2026-04-21 15:53 50.89430 0.28367 23595 ft 356 kts 319°
2026-04-21 15:53 50.91304 0.25820 23050 ft 353 kts 319°
2026-04-21 15:53 50.93133 0.23330 22548 ft 350 kts 319°
2026-04-21 15:53 50.94984 0.20809 22066 ft 355 kts 319°
2026-04-21 15:54 50.96881 0.18223 21555 ft 362 kts 320°
2026-04-21 15:54 50.98801 0.15601 21053 ft 366 kts 320°
2026-04-21 15:54 51.00737 0.12956 20566 ft 369 kts 320°
2026-04-21 15:54 51.02794 0.10507 20041 ft 369 kts 327°
2026-04-21 15:55 51.04920 0.08227 19644 ft 371 kts 326°
2026-04-21 15:55 51.07045 0.05905 19238 ft 372 kts 326°
2026-04-21 15:55 51.09185 0.03545 18791 ft 377 kts 326°
2026-04-21 15:55 51.11353 0.01141 18284 ft 382 kts 326°
2026-04-21 15:56 51.13501 -0.01252 17735 ft 382 kts 326°
2026-04-21 15:56 51.15668 -0.03670 17291 ft 378 kts 326°
2026-04-21 15:56 51.17811 -0.06062 16847 ft 374 kts 326°
2026-04-21 15:56 51.19932 -0.08432 16370 ft 370 kts 326°
2026-04-21 15:57 51.22035 -0.10785 15926 ft 368 kts 326°
2026-04-21 15:57 51.24124 -0.13127 15481 ft 368 kts 326°
2026-04-21 15:57 51.26221 -0.15478 15052 ft 368 kts 326°
2026-04-21 15:57 51.28316 -0.17830 14617 ft 367 kts 327°
2026-04-21 15:58 51.30402 -0.20177 14176 ft 366 kts 327°
2026-04-21 15:58 51.32483 -0.22520 13693 ft 365 kts 327°
2026-04-21 15:58 51.34521 -0.24817 13254 ft 362 kts 328°
2026-04-21 15:58 51.36572 -0.27128 12822 ft 359 kts 327°
2026-04-21 15:59 51.38605 -0.29424 12403 ft 356 kts 328°
2026-04-21 15:59 51.40622 -0.31705 11979 ft 354 kts 327°
2026-04-21 15:59 51.42623 -0.33970 11560 ft 351 kts 327°
2026-04-21 15:59 51.44709 -0.35932 11090 ft 346 kts 340°
2026-04-21 16:00 51.46897 -0.37512 10675 ft 344 kts 339°
2026-04-21 16:00 51.49052 -0.39136 10286 ft 342 kts 338°
2026-04-21 16:00 51.51194 -0.40779 9840 ft 340 kts 338°
2026-04-21 16:00 51.53285 -0.42406 9424 ft 338 kts 337°
2026-04-21 16:01 51.55385 -0.44053 9026 ft 335 kts 338°
2026-04-21 16:01 51.57437 -0.45671 8604 ft 321 kts 338°
2026-04-21 16:01 51.59402 -0.47223 8242 ft 309 kts 338°
2026-04-21 16:01 51.61291 -0.48718 7881 ft 297 kts 338°
2026-04-21 16:02 51.63113 -0.50160 7527 ft 286 kts 338°
2026-04-21 16:02 51.64869 -0.51550 7194 ft 276 kts 338°
2026-04-21 16:02 51.66569 -0.52899 6851 ft 268 kts 338°
2026-04-21 16:02 51.68217 -0.54208 6511 ft 260 kts 339°
2026-04-21 16:03 51.69817 -0.55478 6179 ft 253 kts 339°
2026-04-21 16:03 51.71375 -0.56717 5899 ft 247 kts 339°
2026-04-21 16:03 51.72887 -0.57921 5464 ft 244 kts 339°
2026-04-21 16:03 51.74402 -0.59126 5005 ft 240 kts 339°
2026-04-21 16:04 51.75876 -0.60300 4666 ft 233 kts 339°
2026-04-21 16:04 51.77311 -0.61444 4395 ft 228 kts 340°
2026-04-21 16:04 51.78727 -0.62574 4136 ft 226 kts 340°
2026-04-21 16:04 51.80146 -0.63655 3871 ft 223 kts 347°
2026-04-21 16:05 51.81631 -0.63835 3567 ft 211 kts 17°
2026-04-21 16:05 51.82874 -0.62783 3345 ft 197 kts 48°
2026-04-21 16:05 51.83494 -0.60951 3236 ft 185 kts 77°
2026-04-21 16:05 51.83722 -0.58954 3136 ft 178 kts 77°
2026-04-21 16:06 51.83997 -0.57035 2938 ft 173 kts 75°
2026-04-21 16:06 51.84299 -0.55179 2701 ft 169 kts 73°
2026-04-21 16:06 51.84603 -0.53390 2495 ft 161 kts 74°
2026-04-21 16:06 51.84899 -0.51672 2277 ft 157 kts 74°
2026-04-21 16:07 51.85188 -0.49991 2069 ft 153 kts 73°
2026-04-21 16:07 51.85466 -0.48383 1884 ft 142 kts 73°
2026-04-21 16:07 51.85717 -0.46934 1693 ft 128 kts 74°
2026-04-21 16:07 51.85954 -0.45561 1510 ft 126 kts 73°
2026-04-21 16:08 51.86429 -0.42856 1157 ft 124 kts 75°
2026-04-21 16:08 51.86659 -0.41487 951 ft 129 kts 75°
2026-04-21 16:08 51.86906 -0.40077 819 ft 130 kts 76°
2026-04-21 16:09 51.87148 -0.38661 613 ft 130 kts 76°
2026-04-21 16:09 51.87380 -0.37324 538 ft 105 kts 74°
2026-04-21 16:09 51.87512 -0.36564 538 ft 43 kts 75°
2026-04-21 16:09 51.87571 -0.36223 535 ft 26 kts 74°
2026-04-21 16:10 51.87618 -0.35963 532 ft 23 kts 65°
2026-04-21 16:10 51.87737 -0.35949 534 ft 19 kts 334°
2026-04-21 16:10 51.87776 -0.36127 534 ft 19 kts 256°
2026-04-21 16:10 51.87739 -0.36344 535 ft 21 kts 253°
2026-04-21 16:11 51.87697 -0.36580 536 ft 23 kts 256°
2026-04-21 16:11 51.87654 -0.36835 536 ft 24 kts 254°
2026-04-21 16:11 51.87606 -0.37108 537 ft 26 kts 254°
2026-04-21 16:11 51.87591 -0.37398 538 ft 27 kts 300°
2026-04-21 16:12 51.87687 -0.37527 538 ft 27 kts 307°
2026-04-21 16:12 51.87788 -0.37872 539 ft 22 kts 297°
2026-04-21 16:12 51.87895 -0.38012 539 ft 18 kts 352°
2026-04-21 16:12 51.88007 -0.37952 539 ft 13 kts 54°
2026-04-21 16:13 51.87999 -0.37881 539 ft 7 kts 124°
2026-04-21 16:13 51.87991 -0.37864 539 ft 0 kts 127°
2026-04-21 16:13 51.87989 -0.37859 539 ft 0 kts 127°